User: anonymous   Login
Location: Sun City Center
(27.6996°N, 82.3528°W)
Time: 23:26:33
(UTC-04:00)
Language:

Cosmos 2084 Rocket - Orbit

View from above orbital plane
View from above orbital plane
View from above satellite
View from above satellite

Ground track
Ground track

The orbit data is extracted from the following two-line orbital elements,

1 20666U 90055D   17086.44993006 +.00000234 +00000-0 +37404-4 0  9997
2 20666 062.7838 059.9299 0134717 101.0657 260.5621 14.91861623448988
Epoch (UTC): 27 March 2017 10:47:53
Eccentricity: 0.0134717
inclination: 62.7838°
perigee height: 498 km
apogee height: 686 km
right ascension of ascending node: 59.9299°
argument of perigee: 101.0657°
revolutions per day: 14.91861623
mean anomaly at epoch: 260.5621°
orbit number at epoch: 44898

The dashed part of the orbit path shows where the satellite is in the earth's shadow,  

DLR